This is the latest recevied weather packets stored in our database for station/object KY4LEX. If no packets are shown the sender has not sent any weather packets the latest 10 day(s).
| Time | Temp. | Humidity | Pressure | Rain* | Wind** | Luminosity | Snow |
|---|---|---|---|---|---|---|---|
| 1777654264 | 13.33° C | 61% | 1019.6 hPa | 0 mm | - | 56 W/m² | - |
| 1777653962 | 13.33° C | 60% | 1019.8 hPa | 0 mm | - | 83 W/m² | - |
| 1777653658 | 13.89° C | 58% | 1019.7 hPa | 0 mm | - | 81 W/m² | - |
| 1777653355 | 14.44° C | 56% | 1019.6 hPa | 0 mm | - | 109 W/m² | - |
| 1777653052 | 15° C | 52% | 1019.4 hPa | 0 mm | - | 89 W/m² | - |
| 1777652748 | 15° C | 50% | 1019.3 hPa | 0 mm | - | 90 W/m² | - |
| 1777652445 | 15° C | 49% | 1019.2 hPa | 0 mm | - | 170 W/m² | - |
| 1777652143 | 15° C | 49% | 1019.3 hPa | 0 mm | - | 131 W/m² | - |
| 1777651839 | 15° C | 48% | 1019.4 hPa | 0 mm | - | 132 W/m² | - |
| 1777651536 | 15.56° C | 49% | 1019.1 hPa | 0 mm | - | 123 W/m² | - |
| 1777651233 | 15.56° C | 48% | 1019.1 hPa | 0 mm | - | 184 W/m² | - |
| 1777650929 | 15.56° C | 47% | 1019.1 hPa | 0 mm | - | 136 W/m² | - |
| 1777650627 | 15.56° C | 46% | 1018.8 hPa | 0 mm | - | 177 W/m² | - |
| 1777650324 | 16.67° C | 47% | 1018.9 hPa | 0 mm | - | 281 W/m² | - |
| 1777650021 | 16.11° C | 46% | 1018.8 hPa | 0 mm | - | 272 W/m² | - |
| 1777649719 | 15.56° C | 46% | 1019.2 hPa | 0 mm | - | 283 W/m² | - |
| 1777649414 | 16.11° C | 46% | 1019 hPa | 0 mm | - | 265 W/m² | - |
| 1777649112 | 16.67° C | 45% | 1018.8 hPa | 0 mm | - | 261 W/m² | - |
| 1777648809 | 16.67° C | 45% | 1018.9 hPa | 0 mm | - | 395 W/m² | - |
| 1777648506 | 16.67° C | 44% | 1018.7 hPa | 0 mm | - | 472 W/m² | - |
| 1777648203 | 16.11° C | 44% | 1019 hPa | 0 mm | - | 781 W/m² | - |
| 1777647898 | 16.67° C | 43% | 1018.7 hPa | 0 mm | - | 637 W/m² | - |
| 1777647595 | 16.11° C | 48% | 1018.6 hPa | 0 mm | - | 576 W/m² | - |
| 1777647291 | 16.11° C | 50% | 1018.5 hPa | 0 mm | - | 541 W/m² | - |
| 1777646989 | 15.56° C | 52% | 1018.6 hPa | 0 mm | - | 521 W/m² | - |
* Rain latest hour (hover to see other rain measurements)
** Current wind speed in m/s (hover to see current wind gust speed)